Starlink 4675

operational
NORAD ID: 53601 Int'l Des: 2022-104 Owner: SPXS Country: US Constellation: starlink
LEOCIRCULAR

About Starlink 4675

Description loading...

Live Position

Loading 3D Globe...

Upcoming Passes

Altitude History

Altitude vs Time

uPlot chart will show altitude changes over time

Two-Line Element Set

1 53601U 22104P 25351.00060978 .00000628 00000-0 57547-4 0 9998
2 53601 53.2174 255.1814 0001486 89.0593 271.0570 15.08838520183136
Epoch: Dec 17, 2025 • Age: 11 hours

Current Status

Altitude 559.1 km
Velocity 7.58 km/s
Sub-Earth Point -52.74°S, 72.66°W
Launch Date Aug 28, 2022
Age 3.3 years
Type internet

Technical Details

Classification Payload
Mass 300.00 kg
Dry Mass 290.00 kg
Total Mass 300.00 kg
Length 0.20 m
Diameter 2.80 m
Span 9.00 m
Shape Box + pan
Manufacturer SPXS
Bus Type Starlink
Phase Status In Orbit
Owner/State SPXS/US

Large Constellations

Loading constellations...